EW7001 Weather Reports


Display with metric or nautical units.
time (UTC)temp
F
wind
direction
speed
MPH
gust
MPH
rain 1hr
in
rain 24hr
in
rain mn
in
humidity
%
barometer
mb
20260508051551 50 284 2.0 5.0 0.00 0.59 0.57 72 1008.9
20260508050043 50 250 1.0 5.0 0.00 0.59 0.57 70 1008.7
20260508044542 51 286 3.0 6.0 0.00 0.59 0.57 68 1008.5
20260508043044 51 250 2.0 6.0 0.00 0.59 0.57 68 1008.5
20260508041641 51 283 4.0 6.0 0.00 0.59 0.57 67 1008.7
20260508040040 51 261 3.0 6.0 0.00 0.59 0.57 67 1008.9
20260508034537 51 260 2.0 4.0 0.00 0.59 0.57 67 1008.8
20260508033135 51 269 2.0 4.0 0.00 0.59 0.57 65 1008.8
20260508031534 53 301 2.0 4.0 0.00 0.59 0.57 63 1008.7
20260508030027 52 281 1.0 5.0 0.00 0.59 0.57 63 1008.5
20260508024540 53 286 1.0 4.0 0.00 0.59 0.57 62 1008.3
20260508023029 53 290 1.0 3.0 0.00 0.59 0.57 62 1008.1
20260508021525 53 286 2.0 6.0 0.00 0.59 0.57 61 1008.0
20260508020021 54 314 2.0 6.0 0.00 0.59 0.57 59 1007.9
20260508014540 54 322 2.0 4.0 0.00 0.59 0.57 58 1007.8
20260508013020 55 330 3.0 7.0 0.00 0.59 0.57 55 1007.6
20260508011521 57 1 3.0 7.0 0.01 0.59 0.57 53 1007.5
20260508010025 57 304 5.0 11.0 0.02 0.59 0.57 52 1007.5
20260508004522 57 348 4.0 10.0 0.02 0.59 0.57 52 1007.1
20260508003036 57 1 4.0 12.0 0.03 0.59 0.57 52 1007.2
20260508001513 56 303 6.0 14.0 0.02 0.57 0.56 54 1007.4
20260508000011 56 4 5.0 11.0 0.01 0.56 0.56 57 1007.4
20260507234508 55 319 5.0 12.0 0.01 0.56 0.56 60 1007.3
20260507233006 55 330 4.0 9.0 0.00 0.56 0.55 64 1007.3
20260507231505 54 328 4.0 9.0 0.05 0.56 0.55 66 1007.2
20260507230059 53 1 4.0 13.0 0.17 0.56 0.55 67 1007.4
20260507224613 52 53 5.0 10.0 0.48 0.56 0.55 71 1007.5
20260507223057 48 54 5.0 13.0 0.52 0.56 0.55 80 1007.9
20260507221546 49 13 8.0 14.0 0.47 0.51 0.50 72 1008.1
20260507220038 51 20 9.0 19.0 0.35 0.39 0.38 66 1008.1
20260507214532 57 331 8.0 17.0 0.02 0.07 0.05 56 1007.6
20260507213031 57 277 9.0 20.0 0.00 0.05 0.03 60 1007.6
20260507213028 57 274 9.0 20.0 0.00 0.05 0.03 60 1007.6
20260507211527 56 333 7.0 17.0 0.01 0.05 0.03 62 1007.7
20260507210030 55 286 10.0 21.0 0.02 0.05 0.03 63 1007.8
20260507204522 55 276 13.0 22.0 0.02 0.05 0.03 63 1007.7
20260507203020 57 309 9.0 19.0 0.03 0.05 0.03 59 1007.4
20260507201519 56 262 12.0 18.0 0.02 0.04 0.02 63 1007.5
20260507200010 55 288 11.0 19.0 0.01 0.03 0.01 65 1007.6
20260507194503 53 281 9.0 16.0 0.01 0.03 0.01 70 1008.0
20260507193004 53 277 7.0 16.0 0.00 0.02 0.00 72 1008.0
20260507191559 54 264 8.0 20.0 0.00 0.02 0.00 70 1008.0
20260507190057 53 302 7.0 19.0 0.00 0.02 0.00 73 1008.2
20260507184553 53 298 11.0 20.0 0.00 0.02 0.00 75 1008.3
20260507183047 51 253 9.0 17.0 0.00 0.02 0.00 71 1008.5
20260507181544 52 264 10.0 19.0 0.00 0.02 0.00 67 1008.4
20260507180046 52 279 10.0 16.0 0.00 0.02 0.00 70 1008.5
20260507174535 52 254 9.0 16.0 0.00 0.02 0.00 70 1008.3
20260507173029 54 249 7.0 18.0 0.00 0.02 0.00 61 1008.3
20260507171619 54 307 6.0 13.0 0.00 0.02 0.00 59 1008.1
20260507170014 54 293 6.0 12.0 0.00 0.02 0.00 58 1008.1
20260507164544 54 283 7.0 13.0 0.00 0.03 0.02 59 1008.1
20260507163042 53 302 5.0 11.0 0.00 0.03 0.02 67 1008.3
20260507161539 52 305 5.0 11.0 0.00 0.03 0.02 63 1008.3
20260507160039 52 314 3.0 6.0 0.00 0.03 0.02 62 1008.4
20260507154533 54 348 4.0 8.0 0.00 0.04 0.02 51 1008.6
20260507153035 54 323 3.0 10.0 0.01 0.04 0.02 47 1008.2
20260507151529 54 348 4.0 8.0 0.01 0.04 0.02 46 1008.2
20260507150029 54 314 4.0 9.0 0.01 0.04 0.02 43 1008.3
20260507144528 55 320 4.0 11.0 0.01 0.04 0.02 38 1008.3
20260507143027 55 331 5.0 11.0 0.00 0.03 0.01 37 1008.5
20260507141520 54 314 2.0 7.0 0.00 0.03 0.01 35 1008.5
20260507140026 54 306 2.0 7.0 0.00 0.03 0.01 35 1008.7
20260507134520 54 296 3.0 7.0 0.00 0.03 0.01 36 1008.7
20260507133021 54 281 3.0 6.0 0.00 0.03 0.01 36 1008.5
20260507131515 53 254 2.0 7.0 0.00 0.03 0.01 36 1008.4
20260507130015 51 269 3.0 5.0 0.00 0.03 0.01 39 1008.4
20260507124516 50 314 1.0 3.0 0.00 0.03 0.01 40 1008.3
20260507123021 50 286 3.0 6.0 0.00 0.03 0.01 39 1008.4
20260507121511 48 277 2.0 5.0 0.00 0.03 0.01 42 1008.3
20260507120010 47 284 1.0 5.0 0.00 0.03 0.01 41 1008.2
20260507114509 46 234 4.0 8.0 0.00 0.03 0.01 42 1008.2
20260507113007 45 283 0.0 4.0 0.00 0.03 0.01 44 1008.2
20260507111503 44 218 3.0 5.0 0.00 0.03 0.01 45 1008.4
20260507110005 44 223 3.0 7.0 0.00 0.03 0.01 44 1008.4
20260507104559 44 223 4.0 7.0 0.00 0.03 0.01 43 1008.5
20260507103058 45 213 5.0 8.0 0.00 0.03 0.01 41 1008.7
20260507101606 45 245 2.0 8.0 0.00 0.03 0.01 41 1008.7
20260507100058 44 241 1.0 5.0 0.00 0.03 0.01 42 1008.7
20260507094600 44 236 3.0 6.0 0.00 0.03 0.01 40 1008.7
20260507093051 48 241 3.0 7.0 0.00 0.03 0.01 37 1008.9
20260507091600 48 281 4.0 8.0 0.00 0.03 0.01 36 1008.8
20260507090109 48 246 3.0 8.0 0.00 0.03 0.01 36 1008.9
20260507084549 48 264 3.0 8.0 0.00 0.03 0.01 36 1009.0
20260507083048 47 257 6.0 10.0 0.00 0.03 0.01 37 1008.9
20260507081556 47 243 6.0 9.0 0.00 0.03 0.01 36 1008.9
20260507081554 47 229 6.0 9.0 0.00 0.03 0.01 36 1008.9
20260507080043 48 260 8.0 13.0 0.00 0.03 0.01 34 1009.2
20260507074559 49 256 6.0 9.0 0.00 0.03 0.01 34 1009.7
20260507073011 48 237 6.0 12.0 0.00 0.03 0.01 34 1009.7
20260507071509 47 246 6.0 12.0 0.00 0.03 0.01 34 1009.9
20260507070048 47 243 4.0 9.0 0.00 0.03 0.01 33 1010.5
20260507064536 47 251 8.0 12.0 0.00 0.03 0.01 33 1010.3
20260507063006 46 204 6.0 14.0 0.00 0.03 0.01 34 1010.5
20260507061506 39 263 3.0 6.0 0.00 0.03 0.01 44 1010.7
20260507060032 37 220 4.0 6.0 0.00 0.03 0.01 45 1010.8
20260507054530 38 220 4.0 6.0 0.00 0.03 0.01 42 1010.9
20260507053059 39 195 6.0 8.0 0.00 0.03 0.01 42 1011.1